"Pseudo-MPEC" for ZTB7604

Created 2018 Oct 12 22:18:30 UT using Find_Orb

Click here for an explanation of pseudo-MPECs

 
 Astrometry: 
     ZTB7604  C2018 10 10.37757 04 43 25.38 +25 42 31.8          19.9 GVNEOCPG96
     ZTB7604  C2018 10 10.38276 04 43 20.65 +25 41 32.1          20.3 GVNEOCPG96
     ZTB7604  C2018 10 10.38793 04 43 15.97 +25 40 33.0          19.8 GVNEOCPG96
     ZTB7604  C2018 10 10.39310 04 43 11.31 +25 39 33.1          20.1 GVNEOCPG96
     ZTB7604  C2018 10 10.49165 04 41 42.66 +25 20 39.5          19.8 GVNEOCPI52
     ZTB7604  C2018 10 10.49221 04 41 42.20 +25 20 33.3          19.7 GVNEOCPI52
     ZTB7604  C2018 10 10.49276 04 41 41.70 +25 20 27.2          19.2 GVNEOCPI52
     ZTB7604  C2018 10 10.49332 04 41 41.18 +25 20 20.3          19.8 GVNEOCPI52
     ZTB7604 KC2018 10 11ePAstrometry)NJ2'lf'nK3gvM/vX4fMn/jtq#T2C*;qU'R1s?lAK88
     ZTB7604 KC2018 10 11D/t-rpe-6lUE6On](7hw.w$;.R4!MX[\Rh/-9Sq^jU8^7O57WmReK88
     ZTB7604 KC2018 10 11Ef@sDU/PC-*4F^_^(`m@x+IX@`5g9T3%u`$*I.NB;2V;Jp,0mL.RK88
     ZTB7604 KC2018 10 11ufL6U:O/'T^g2i6Aq26)iRT_,`oSgW,wXRRr[ayjF@i1w`C4if@wL01
     ZTB7604 KC2018 10 11%L8t%Y+eu\D(4p=PJredacted;-PD0?Ua%SuH?oFEA^s!=Yfl;dNL01
     ZTB7604 IC2018 10 11P5lZ9Sd]c)mKbF0?pVdkn8leq322w:f`P%::=WC0\_07pO-nRO,EL01
     ZTB7604 IC2018 10 11:W2C/A`P[jUu+r-(\ihl^vgjtmv?.SQhP:c6DE[Ttf'ncK6/+N+ML01
     ZTB7604  C2018 10 11muG`K@HXK7/?ydEZ@FD!oa+qfZ9MR`g#Z6\+MkJMjhMK,GK+@l)cH01
     ZTB7604  C2018 10 11o:@.ArH.u\D1gKkyGZL@MwKOr2R['l!i3Mku#Mt4nEk`x8@Xd`+;H01
     ZTB7604  C2018 10 11f53*Ge?OWurDHdtKkn:`m+FFw@$aZ0Fyseej*FUJOgEHeGf_MW-gH01
     ZTB7604  C2018 10 11qUL=!I7%dLi@rB0Wi@'-@L',2Tsu5N!-)$DchpR/Cus9[6aWMBc9H01
     ZTB7604 KC2018 10 12w[2Lq;N$DR-us:^pi1p-K+C%FTRhrE?S2lJMtNKQY!$M9NKD#P)UH21
     ZTB7604 KC2018 10 12OUb=M-]s)+F#3L)__v2RJ(#n_SQ_c:KDA2[,d-,AtX$9==5)p`1sH21
     ZTB7604 KC2018 10 12.p'`0jf$;dF'y3=ct^]R=vJZf-Ps$4i+NSuoXjYXq34_PwYNEOCPH21

Station data:
(G96) Mt. Lemmon Survey  (N32.442754 W110.788720)  US/Arizona.  Observers B.
   M. Africano, E. J. Christensen, D. C. Fuls, A. R. Gibbs, A. D. Grauer, J.
   A. Johnson, R. A. Kowalski, S. M. Larson, G. J. Leonard, R. L. Seaman, F.
   C. Shelly. 1.5-m reflector + 10K CCD.
(H01) Magdalena Ridge Observatory, Socorro  (N33.984833 W107.189333)  US/New
   Mexico.  Observers W. H. Ryan, E. V. Ryan. Measurer W. H. Ryan. 2.4-m
   f/8.9 reflector + CCD.
(H21) Astronomical Research Observatory, Westfield  (N39.483057 W87.968270)
   US/Illinois. 0.76-m f/3.0 astrograph + CCD.
(I52) Steward Observatory, Mt. Lemmon Station  (N32.442547 W110.788920)
   US/Arizona.  Observers B. M. Africano, E. J. Christensen, D. C. Fuls, A.
   R. Gibbs, A. D. Grauer, J. A. Johnson, R. A. Kowalski, S. M. Larson, G. J.
   Leonard, R. L. Seaman, F. C. Shelly. 1.0-m reflector + CCD.
(K88) GINOP-KHK, Piszkéstető  (N47.917622 E19.893600)  Hungary.  Observer K.
   Sárneczky. 0.60-m Schmidt + CCD.
(L01) Višnjan Observatory, Tičan  (N45.290900 E13.749300)  Croatia.  Observer
   K. Korlević. 1.0-m f/2.9 reflector + CCD.

Orbital elements:  ZTB7604
   Perihelion 2018 Aug 27.561741 +/- 0.0334 TT = 13:28:54 (JD 2458358.061741)
Epoch 2018 Oct 12.0 TT = JDT 2458403.5   Earth MOID: 0.0231   Ma: 0.0519
M  12.14469 +/- 0.11                (J2000 ecliptic)          AutoNEOCP
n   0.26727909 +/- 0.00232          Peri.  115.60455 +/- 0.014
a   2.38685509 +/- 0.0138           Node   201.84003 +/- 0.010
e   0.6564165 +/- 0.00216           Incl.   10.94837 +/- 0.029
P   3.69                   H 23.6   G  0.15   U  8.7  
q 0.82008379 +/- 0.000416    Q 3.95362639 +/- 0.0277
From 22 observations 2018 Oct. 10-12 (47.5 hr); mean residual 0".19
Residuals in arcseconds: 
181010 G96  .22+  .25+    181011 K88  .11-  .09-    181011 H01  .06+  .11-    
181010 G96  .15-  .15+    181011 K88  .17+  .51+    181011 H01  .01-  .13-    
181010 G96  .10-  .43+    181011 K88  .04+  .21+    181011 H01  .08+  .11-    
181010 G96  .20+  .08-    181011 L01  .17+  .08-    181012 H21  .11+  .01+    
181010 I52  .34-  .41-    181011 L01  .06-  .09-    181012 H21  .04-  .09+    
181010 I52  .19+  .16-    181011 L01  .08-  .09-    181012 H21  .14-  .05-    
181010 I52  .04+  .07+    181011 L01  .19+  .25-    
181010 I52  .25-  .38-    181011 H01  .20-  .21+    

Ephemerides (geocentric):
Date (UTC) HH   RA              Dec         delta   r     elong  mag " sig PA
---- -- -- --  -------------   -----------  ------ ------ -----  --- ---- ---
2018 10 12 22  04 13 51.587   +18 40 00.00  .09803 1.0687 134.3 20.3  .17 151
2018 10 12 23  04 13 28.378   +18 34 07.03  .09832 1.0690 134.4 20.3  .17 151
2018 10 13 00  04 13 05.322   +18 28 15.92  .09861 1.0694 134.6 20.3  .17 151
2018 10 13 01  04 12 42.415   +18 22 26.66  .09889 1.0698 134.7 20.4  .17 151
2018 10 13 02  04 12 19.657   +18 16 39.25  .09918 1.0701 134.9 20.4  .18 151
2018 10 13 03  04 11 57.047   +18 10 53.66  .09947 1.0705 135.0 20.4  .18 152
2018 10 13 04  04 11 34.582   +18 05 09.90  .09976 1.0709 135.1 20.4  .18 152
2018 10 13 05  04 11 12.262   +17 59 27.95  .10005 1.0712 135.3 20.4  .18 152
2018 10 13 06  04 10 50.085   +17 53 47.80  .10034 1.0716 135.4 20.4  .18 152
2018 10 13 07  04 10 28.050   +17 48 09.45  .10063 1.0720 135.6 20.4  .19 152
2018 10 13 08  04 10 06.155   +17 42 32.88  .10093 1.0724 135.7 20.4  .19 152
2018 10 13 09  04 09 44.400   +17 36 58.08  .10122 1.0727 135.8 20.4  .19 152
2018 10 13 10  04 09 22.782   +17 31 25.05  .10151 1.0731 136.0 20.4  .19 152
2018 10 13 11  04 09 01.301   +17 25 53.78  .10180 1.0735 136.1 20.4  .19 152
2018 10 13 12  04 08 39.955   +17 20 24.25  .10210 1.0738 136.3 20.4  .20 152
2018 10 13 13  04 08 18.743   +17 14 56.46  .10239 1.0742 136.4 20.4  .20 152
2018 10 13 14  04 07 57.664   +17 09 30.40  .10269 1.0746 136.5 20.4  .20 152
2018 10 13 15  04 07 36.716   +17 04 06.05  .10298 1.0749 136.7 20.4  .20 152
2018 10 13 16  04 07 15.898   +16 58 43.41  .10328 1.0753 136.8 20.4  .21 152
2018 10 13 17  04 06 55.210   +16 53 22.47  .10358 1.0757 136.9 20.4  .21 152
2018 10 13 18  04 06 34.649   +16 48 03.22  .10387 1.0760 137.1 20.4  .21 152
2018 10 13 19  04 06 14.215   +16 42 45.65  .10417 1.0764 137.2 20.4  .21 152
2018 10 13 20  04 05 53.907   +16 37 29.74  .10447 1.0768 137.3 20.4  .21 152
2018 10 13 21  04 05 33.723   +16 32 15.50  .10477 1.0772 137.5 20.4  .22 152
2018 10 13 22  04 05 13.662   +16 27 02.91  .10507 1.0775 137.6 20.4  .22 152
2018 10 13 23  04 04 53.724   +16 21 51.96  .10536 1.0779 137.7 20.4  .22 152
2018 10 14 00  04 04 33.906   +16 16 42.65  .10566 1.0783 137.8 20.4  .22 152
2018 10 14 01  04 04 14.208   +16 11 34.95  .10597 1.0786 138.0 20.4  .23 152
2018 10 14 02  04 03 54.629   +16 06 28.88  .10627 1.0790 138.1 20.4  .23 152
2018 10 14 03  04 03 35.168   +16 01 24.40  .10657 1.0794 138.2 20.4  .23 151
2018 10 14 04  04 03 15.823   +15 56 21.52  .10687 1.0798 138.4 20.4  .23 151
2018 10 14 05  04 02 56.594   +15 51 20.23  .10717 1.0801 138.5 20.4  .23 151
2018 10 14 06  04 02 37.480   +15 46 20.52  .10747 1.0805 138.6 20.4  .24 151
2018 10 14 07  04 02 18.479   +15 41 22.37  .10778 1.0809 138.7 20.4  .24 151
2018 10 14 08  04 01 59.591   +15 36 25.78  .10808 1.0812 138.9 20.5  .24 151
2018 10 14 09  04 01 40.814   +15 31 30.74  .10838 1.0816 139.0 20.5  .24 151
2018 10 14 10  04 01 22.148   +15 26 37.25  .10869 1.0820 139.1 20.5  .25 151
2018 10 14 11  04 01 03.591   +15 21 45.28  .10899 1.0824 139.2 20.5  .25 151
2018 10 14 12  04 00 45.143   +15 16 54.84  .10930 1.0827 139.3 20.5  .25 151
2018 10 14 13  04 00 26.802   +15 12 05.91  .10961 1.0831 139.5 20.5  .25 151
2018 10 14 14  04 00 08.568   +15 07 18.49  .10991 1.0835 139.6 20.5  .26 151
2018 10 14 15  03 59 50.440   +15 02 32.56  .11022 1.0838 139.7 20.5  .26 151
2018 10 14 16  03 59 32.416   +14 57 48.12  .11053 1.0842 139.8 20.5  .26 151
2018 10 14 17  03 59 14.497   +14 53 05.16  .11083 1.0846 139.9 20.5  .26 150
2018 10 14 18  03 58 56.680   +14 48 23.67  .11114 1.0850 140.1 20.5  .27 150
2018 10 14 19  03 58 38.965   +14 43 43.64  .11145 1.0853 140.2 20.5  .27 150
2018 10 14 20  03 58 21.352   +14 39 05.06  .11176 1.0857 140.3 20.5  .27 150
2018 10 14 21  03 58 03.839   +14 34 27.93  .11207 1.0861 140.4 20.5  .27 150